Hourly Data Report for October 16, 2019

All times are specified in Local Standard Time (LST). Add 1 hour to adjust for Daylight Saving Time where and when it is observed.

EUREKA CLIMATE
NUNAVUT
Current Station Operator: ECCC - MSC

79°59'21.000" N
85°56'02.000" W
10.00 m
2401199
71613
NEK

Download Data

Hourly Data (October 2019)
Hourly Data Report for October 16, 2019
TIME Temp Definition
°C
Dew Point Definition
°C
Rel Hum Definition
%
Wind Dir Definition
10's deg

Wind Spd Definition
km/h
Visibility Definition
km
Stn Press Definition
kPa
Hmdx Definition


Wind Chill Definition


Weather Definition


00:00 -9.0 -10.3 90 14 29   100.62   -18 LegendNANA
01:00 -8.4 -9.8 90 11 24   100.65   -17 LegendNANA
02:00 -7.9 -9.9 85 16 24   100.61   -16 LegendNANA
03:00 -8.4 -10.2 87 13 21   100.64   -16 LegendNANA
04:00 -8.6 -10.5 86 19 32   100.53   -18 LegendNANA
05:00 -8.4 -10.3 86 18 39   100.52   -19 LegendNANA
06:00 -8.0 -9.9 86 17 42   100.52   -18 LegendNANA
07:00 -7.9 -9.6 88 18 31   100.53   -17 LegendNANA
08:00 -7.5 -9.5 86 19 25   100.56   -16 LegendNANA
09:00 -6.9 -9.4 82 17 21   100.58   -14 LegendNANA
10:00 -6.4 -9.3 80 17 14   100.59   -12 LegendNANA
11:00 -5.2 -11.4 62 19 7   100.60   -8 LegendNANA
12:00 -5.8 -10.2 71 21 11   100.59   -11 LegendNANA
13:00 -5.8 -9.6 74 17 16   100.59   -12 LegendNANA
14:00 -6.5 -9.3 80 18 21   100.61   -14 LegendNANA
15:00 -6.4 -9.3 80 19 20   100.62   -13 LegendNANA
16:00 -6.5 -8.6 85 20 21   100.62   -14 LegendNANA
17:00 -6.4 -8.7 84 20 22   100.61   -14 LegendNANA
18:00 -6.5 -9.7 78 20 18   100.62   -13 LegendNANA
19:00 -6.0 -9.1 79 20 22   100.60   -13 LegendNANA
20:00 -6.0 -9.5 76 16 21   100.58   -13 LegendNANA
21:00 -5.6 -8.9 77 21 26   100.56   -13 LegendNANA
22:00 -5.9 -8.2 84 19 34   100.55   -15 LegendNANA
23:00 -6.0 -8.3 84 18 26   100.54   -14 LegendNANA

Notes on Data Quality.

Legend

  • E = Estimated
  • M = Missing
  • NA = Not Available
Date modified: